Stations météo

réclame
Mon MeteoGroup
Perigueux, France (7428): Température de l'air & dewpoint: 15.06.2018 12:00:00 - 21.06.2018 12:00:00 (CEST)Perigueux, France (7428): Vitesse du vent & gusts: 15.06.2018 12:00:00 - 21.06.2018 12:00:00 (CEST)Perigueux, France (7428): Direction du vent: 15.06.2018 12:00:00 - 21.06.2018 12:00:00 (CEST)Perigueux, France (7428): reduced air pressure: 15.06.2018 12:00:00 - 21.06.2018 12:00:00 (CEST)Perigueux, France (7428): visibility: 15.06.2018 12:00:00 - 21.06.2018 12:00:00 (CEST)
Date & Time tt [°C] td [°C] ff [km/h] ff [knt] fx [km/h] fx [knt] dd ppp [hPa] vv [km]
21.06.2018 12:00:00 29,7 19,1 5 3 15 8 NNW 1018,3 40
21.06.2018 11:00:00 27,2 19,3 8 4 16 9 W 1018,3 50
21.06.2018 10:00:00 24,9 19,0 8 4 15 8 WNW 1018,5 60
21.06.2018 09:00:00 22,8 18,3 0 0 5 3 N 1018,8 45
21.06.2018 08:00:00 18,6 16,9 0 0 5 3 N 1018,6 35
21.06.2018 07:00:00 16,2 15,9 4 2 4 2 E 1018,4 12
21.06.2018 06:00:00 15,6 15,3 4 2 4 2 E 1017,9 3,5
21.06.2018 05:00:00 15,7 15,4 4 2 5 3 E 1017,9 6
21.06.2018 04:00:00 16,6 16,3 0 0 4 2 N 1018,0 9
21.06.2018 03:00:00 16,9 16,4 0 0 5 3 N 1018,2 8
21.06.2018 02:00:00 17,8 17,2 0 0 4 2 N 1018,1 11
21.06.2018 01:00:00 18,7 17,9 4 2 5 3 E 1018,2 12
21.06.2018 00:00:00 19,8 18,3 2 1 4 2 E 1018,3 29
20.06.2018 23:00:00 21,4 19,0 0 0 4 2 N 1017,9 45
20.06.2018 22:00:00 23,8 19,7 0 0 4 2 N 1017,2 55
20.06.2018 21:00:00 29,6 20,5 0 0 4 2 N 1016,5 55
20.06.2018 20:00:00 32,6 16,8 0 0 8 4 N 1016,5 55
20.06.2018 19:00:00 32,1 16,8 5 3 8 4 NNE 1016,4 55
20.06.2018 18:00:00 31,9 15,8 0 0 11 6 N 1016,8 50
20.06.2018 17:00:00 32,2 16,1 4 2 15 8 NNE 1017,0 60
20.06.2018 16:00:00 31,3 16,5 4 2 13 7 N 1017,3 60
20.06.2018 15:00:00 31,4 17,3 8 4 18 10 N 1017,5 60
20.06.2018 14:00:00 30,3 17,7 5 3 13 7 NNE 1018,0 60
20.06.2018 13:00:00 29,9 18,0 4 2 13 7 ESE 1018,4 60
20.06.2018 12:00:00 28,6 17,5 5 3 18 10 E 1018,6 60
20.06.2018 11:00:00 27,3 16,9 9 5 15 8 E 1018,8 55
20.06.2018 10:00:00 24,8 17,0 5 3 11 6 ENE 1019,2 18
20.06.2018 09:00:00 21,6 17,2 4 2 8 4 ENE 1019,4 55
20.06.2018 08:00:00 17,7 15,7 5 3 8 4 E 1019,7 55
20.06.2018 07:00:00 14,7 14,2 5 3 8 4 ESE 1019,7 15
20.06.2018 06:00:00 14,4 14,1 5 3 8 4 ESE 1019,5 19
20.06.2018 05:00:00 15,0 14,7 4 2 9 5 ESE 1019,5 18
20.06.2018 04:00:00 15,6 15,0 5 3 9 5 ESE 1019,7 19
20.06.2018 03:00:00 16,4 15,6 5 3 9 5 E 1019,7 40
20.06.2018 02:00:00 18,4 15,6 5 3 11 6 E 1019,8 60
20.06.2018 01:00:00 19,6 16,2 5 3 11 6 ESE 1019,8 55
20.06.2018 00:00:00 18,5 16,5 0 0 5 3 N 1020,0 55
19.06.2018 23:00:00 20,2 17,0 2 1 8 4 ESE 1019,9 60
19.06.2018 22:00:00 24,4 17,4 2 1 13 7 NW 1019,3 40
19.06.2018 21:00:00 27,8 16,7 5 3 18 10 N 1019,4 55
19.06.2018 20:00:00 29,0 17,5 8 4 21 11 N 1019,3 60
19.06.2018 19:00:00 29,2 16,7 11 6 21 11 NNE 1019,6 60
19.06.2018 18:00:00 29,3 17,2 9 5 21 11 NNE 1020,2 60
19.06.2018 17:00:00 29,1 17,3 11 6 24 13 NNW 1020,8 60
19.06.2018 16:00:00 28,4 17,0 5 3 22 12 NE 1021,4 60
19.06.2018 15:00:00 27,3 16,6 11 6 24 13 ENE 1021,9 60
19.06.2018 14:00:00 26,4 16,0 13 7 29 16 NE 1022,6 60
19.06.2018 13:00:00 25,4 16,0 13 7 26 14 N 1023,3 55
19.06.2018 12:00:00 25,1 16,0 11 6 22 12 ENE 1023,6 17
19.06.2018 11:00:00 23,4 15,4 8 4 16 9 ENE 1024,3 55
19.06.2018 10:00:00 21,3 16,0 8 4 15 8 ENE 1025,1 19
19.06.2018 09:00:00 16,2 14,4 2 1 5 3 ESE 1025,5 19
19.06.2018 08:00:00 13,5 13,3 0 0 4 2 N 1025,9 0,3
19.06.2018 07:00:00 11,9 11,7 0 0 2 1 N 1025,9 0,5
19.06.2018 06:00:00 11,5 11,2 0 0 2 1 N 1025,8 0,2
19.06.2018 05:00:00 11,9 11,6 0 0 4 2 N 1025,8 0,4
19.06.2018 04:00:00 11,8 11,3 0 0 5 3 N 1025,8 6
19.06.2018 03:00:00 12,8 12,5 2 1 8 4 ESE 1025,8 5
19.06.2018 02:00:00 13,6 13,1 0 0 5 3 N 1025,9 5
19.06.2018 01:00:00 14,2 13,6 0 0 4 2 N 1025,9 9
19.06.2018 00:00:00 15,0 14,0 0 0 5 3 N 1025,9 7
18.06.2018 23:00:00 16,2 15,1 0 0 5 3 N 1025,6 5
18.06.2018 22:00:00 18,3 16,5 4 2 5 3 WSW 1024,9 55
18.06.2018 21:00:00 21,1 16,5 0 0 5 3 N 1024,5 60
18.06.2018 20:00:00 22,0 15,8 4 2 8 4 NNE 1024,6 60
18.06.2018 19:00:00 21,9 16,0 5 3 18 10 N 1024,7 55
18.06.2018 18:00:00 21,7 15,5 0 0 5 3 N 1024,7 60
18.06.2018 17:00:00 22,1 15,4 2 1 13 7 NNW 1024,8 55
18.06.2018 16:00:00 22,0 15,1 4 2 18 10 WNW 1025,2 60
18.06.2018 15:00:00 21,2 15,9 2 1 13 7 E 1025,4 60
18.06.2018 14:00:00 19,1 16,3 5 3 13 7 W 1025,8 45
18.06.2018 13:00:00 18,3 15,5 4 2 15 8 WSW 1026,0 9
18.06.2018 12:00:00 18,4 14,9 4 2 11 6 SW 1025,8 40
18.06.2018 11:00:00 17,7 14,6 4 2 11 6 SW 1025,8 40
18.06.2018 10:00:00 16,8 14,3 8 4 13 7 SW 1026,1 45
18.06.2018 09:00:00 15,9 13,6 4 2 9 5 SSW 1026,0 35
18.06.2018 08:00:00 14,5 13,0 5 3 8 4 WSW 1025,8 19
18.06.2018 07:00:00 14,2 13,6 2 1 8 4 E 1025,7 12
18.06.2018 06:00:00 13,9 12,9 2 1 5 3 WSW 1025,6 4,4
18.06.2018 05:00:00 13,5 12,6 0 0 2 1 N 1025,4 19
18.06.2018 04:00:00 13,2 12,4 2 1 4 2 E 1025,1 18
18.06.2018 03:00:00 12,7 12,1 0 0 5 3 N 1025,4 19
18.06.2018 02:00:00 12,7 10,8 4 2 11 6 WSW 1025,5 35
18.06.2018 01:00:00 13,7 11,2 5 3 8 4 SW 1025,5 45
18.06.2018 00:00:00 14,4 11,2 2 1 9 5 SW 1025,4 19
17.06.2018 23:00:00 16,1 11,5 5 3 13 7 WSW 1025,0 60
17.06.2018 22:00:00 16,9 12,0 9 5 18 10 WNW 1024,6 55
17.06.2018 21:00:00 19,7 12,2 11 6 31 17 W 1023,5 50
17.06.2018 20:00:00 21,5 12,1 21 11 31 17 WNW 1023,3 55
17.06.2018 19:00:00 22,3 12,8 15 8 28 15 WNW 1022,6 60
17.06.2018 18:00:00 23,2 11,6 13 7 37 20 W 1022,5 45
17.06.2018 17:00:00 22,2 13,0 13 7 22 12 W 1022,6 60
17.06.2018 16:00:00 21,4 13,1 9 5 21 11 W 1022,9 50
17.06.2018 15:00:00 21,9 12,2 5 3 18 10 WSW 1022,8 60
17.06.2018 14:00:00 20,9 12,3 5 3 22 12 W 1023,1 60
17.06.2018 13:00:00 20,0 12,0 9 5 18 10 WNW 1023,2 60
17.06.2018 12:00:00 19,5 12,0 9 5 18 10 W 1023,4 45
17.06.2018 11:00:00 18,8 11,8 8 4 15 8 WSW 1023,4 55
17.06.2018 10:00:00 18,0 12,2 4 2 11 6 SW 1023,5 50
17.06.2018 09:00:00 16,5 13,2 0 0 8 4 N 1023,4 45
17.06.2018 08:00:00 13,3 12,7 4 2 8 4 ENE 1023,1 19
17.06.2018 07:00:00 12,2 11,9 0 0 4 2 N 1023,1 17
17.06.2018 06:00:00 11,4 10,9 0 0 2 1 N 1022,8 14
17.06.2018 05:00:00 11,0 10,5 0 0 2 1 N 1022,5 9
17.06.2018 04:00:00 11,4 10,6 0 0 4 2 N 1022,3 14
17.06.2018 03:00:00 12,6 11,3 0 0 4 2 N 1022,0 16
17.06.2018 02:00:00 12,9 11,5 4 2 5 3 SW 1022,1 35
17.06.2018 01:00:00 14,7 11,5 5 3 13 7 WSW 1022,0 50
17.06.2018 00:00:00 15,8 11,8 8 4 15 8 WSW 1021,8 55
16.06.2018 23:00:00 17,4 12,5 8 4 21 11 W 1021,5 55
16.06.2018 22:00:00 18,1 12,8 9 5 24 13 W 1020,5 55
16.06.2018 21:00:00 19,6 12,8 11 6 24 13 W 1019,8 50
16.06.2018 20:00:00 20,1 12,3 13 7 29 16 W 1019,2 50
16.06.2018 19:00:00 21,1 13,0 13 7 22 12 W 1018,7 60
16.06.2018 18:00:00 20,7 12,9 11 6 26 14 W 1018,9 55
16.06.2018 17:00:00 21,5 13,1 13 7 28 15 W 1018,8 45
16.06.2018 16:00:00 21,4 13,1 11 6 21 11 W 1018,9 45
16.06.2018 15:00:00 21,2 13,4 15 8 26 14 WSW 1018,9 50
16.06.2018 14:00:00 20,1 12,6 11 6 21 11 W 1019,2 40
16.06.2018 13:00:00 20,3 13,5 9 5 22 12 WSW 1019,5 60
16.06.2018 12:00:00 18,7 12,2 11 6 24 13 W 1019,4 19
16.06.2018 11:00:00 18,0 12,2 13 7 22 12 W 1019,5 50
16.06.2018 10:00:00 17,6 11,2 8 4 16 9 W 1019,2 19
16.06.2018 09:00:00 16,5 12,3 2 1 5 3 NW 1019,1 55
16.06.2018 08:00:00 14,2 12,4 2 1 4 2 E 1019,0 18
16.06.2018 07:00:00 11,6 11,1 0 0 4 2 N 1018,7 10
16.06.2018 06:00:00 11,3 10,4 0 0 4 2 N 1018,7 10
16.06.2018 05:00:00 13,0 11,7 4 2 8 4 SW 1018,7 16
16.06.2018 04:00:00 13,9 12,5 5 3 9 5 W 1018,7 19
16.06.2018 03:00:00 14,7 12,6 5 3 15 8 WSW 1018,9 30
16.06.2018 02:00:00 15,4 13,1 5 3 18 10 W 1018,9 35
16.06.2018 01:00:00 16,9 13,0 13 7 24 13 W 1018,9 55
16.06.2018 00:00:00 17,9 16,6 4 2 11 6 WNW 1018,5 55
15.06.2018 23:00:00 17,3 16,0 0 0 11 6 N 1018,4 60
15.06.2018 22:00:00 18,0 16,2 9 5 22 12 W 1018,1 60
15.06.2018 21:00:00 19,2 16,1 11 6 22 12 W 1017,8 60
15.06.2018 20:00:00 20,4 16,2 11 6 18 10 W 1017,6 55
15.06.2018 19:00:00 20,6 16,2 11 6 18 10 W 1017,6 55
15.06.2018 18:00:00 21,1 15,6 9 5 15 8 WSW 1017,7 60
15.06.2018 17:00:00 21,0 16,2 9 5 18 10 W 1017,9 50
15.06.2018 16:00:00 20,0 15,2 15 8 22 12 W 1018,3 45
15.06.2018 15:00:00 20,2 15,0 11 6 15 8 W 1018,1 50
15.06.2018 14:00:00 20,3 14,0 4 2 11 6 S 1018,1 35
15.06.2018 13:00:00 20,1 14,5 4 2 13 7 N 1018,4 55
15.06.2018 12:00:00 18,7 14,2 5 3 13 7 NW 1018,6 19

tt = Température de l'air
td = dewpoint
ff = Vitesse du vent
fx = gusts
dd = Direction du vent
ppp = reduced air pressure
vv = visibility

stations d'obs. à proximité